星链-2096 (STARLINK-2096 )

导读 | 星芒AI

STARLINK-2096 是 SpaceX 星链计划中的一颗低轨通信卫星,属于第二代星链星座的一部分。该卫星旨在提升全球互联网覆盖,特别是偏远地区的网络接入能力。它采用先进推进系统和激光通信技术,以提高数据传输效率和运行稳定性。STARLINK-2096 的发射进一步推动了星链系统向更高性能和更大规模发展,助力实现全球高速互联网服务的愿景。

基本信息
目录编号:
47376
目录名称:
STARLINK-2096
国际标识:
2021-005AD
轨道中心:
EARTH
卫星名称:
星链-2096
卫星全名:
星链-2096 (STARLINK-2096 )
卫星状态:
在轨 (已飞行1743 天)
发射日期:
2021-01-20 UTC
国别 :
美国 (US)
星等 :
--
轨道信息
数据来源 国际轨道数据
星历时间: 2025-10-29T14:55:50+0800
12小时前
查看轨道信息
半长轴: 6925.332km
偏心率: 0.0001992
轨道倾角: 53.054°
近地点辐角 96.991°
升交点赤经 291.504°
平近点角 263.130°
近地点: 545.817km
远地点: 548.577km
周期: 95.592分钟
每日圈数: 15.064056
详细信息
固有亮度:
5
最大亮度:
2.5
卫星平台:
Starlink V1.0
覆盖范围:
全球
运营商:
太空探索技术公司
运营商所在国:
美国
制造商(研发单位):
太空探索技术公司
制造商所在国:
美国
使用方式:
暂无
卫星简介
星链(Starlink)计划是由太空探索技术公司(SpaceX)提出的一个巨型低轨卫星互联网星座项目,计划在2019年至2024年间在太空搭建由约1.2万颗卫星组成的“星链”网络,其中1584颗将部署在地球上空550千米处的近地轨道,并从2020年开始工作。该卫星仍在工作。
2D轨道图
3D轨道图
轨道高度分析图
轨道倾角分析图
轨道综合分析图
查看轨道综合分析图